TO-108
1 44881U 19093C   25140.55544269  .00000873  00000-0  10706-3 0  9994
2 44881  97.7926 216.6235 0012462 300.3619  59.6364 14.85560514293106
FloripaSat 1
1 44885U 19093G   25140.78077322  .00005178  00000-0  44029-3 0  9992
2 44885  97.8143 228.3431 0008936 266.8484  93.1716 14.98253463293781
RS-44
1 44909U 19096E   25140.61811947  .00000010  00000-0 -13171-5 0  9990
2 44909  82.5224 240.5384 0217005 342.5501  16.8223 12.79740560252138
UPMSat 2
1 46276U 20061E   25140.44770085  .00054048  00000-0  52678-3 0  9993
2 46276  97.2448 214.1929 0001644 164.1146 196.0167 15.66077572262317
SALSAT
1 46495U 20068K   25140.50604359  .00006275  00000-0  27404-3 0  9998
2 46495  97.8597 117.6134 0009955 225.2762 134.7663 15.22466148255474
CubeSX-Sirius-HSE
1 47951U 21022V   25140.52658366  .00440960  75824-4  14230-2 0  9991
2 47951  97.4103  53.1707 0005649 109.8789 250.3093 15.90834652230663
CubeSX-HSE
1 47952U 21022W   25140.78962933  .00434769  74220-4  13623-2 0  9992
2 47952  97.4119  53.7246 0005061 113.6731 246.5074 15.91418342230721
GRBAlpha
1 47959U 21022AD  25140.84728458  .00413894  65760-4  14199-2 0  9992
2 47959  97.4113  53.8517 0005133 108.9060 251.2769 15.89626706229551
TUBIN
1 48900U 21059X   25140.77067155  .00043032  00000-0  55673-3 0  9999
2 48900  97.6749 308.4161 0002438 292.8825  67.2173 15.58804536216955
LEDSAT
1 49069U 21073D   25140.47780084  .00054461  00000-0  71991-3 0  9991
2 49069  97.3889 221.2163 0011792 151.9739 208.2154 15.58098691208303
CUTE
1 49263U 21088D   25140.17080165  .00012365  00000-0  25320-3 0  9995
2 49263  97.4507 215.8456 0006762 320.7819  39.2939 15.46218779201277
TeikyoSat 4
1 49396U 21102B   25140.57294228  .00002026  00000-0  13705-3 0  9997
2 49396  97.4121 179.7234 0012112 194.2331 165.8558 15.07557884193539
Z-Sat
1 49399U 21102E   25140.53090846  .00004412  00000-0  24397-3 0  9996
2 49399  97.3815 182.6558 0018650 168.5166 191.6495 15.14235109193949
KOSEN 1
1 49402U 21102H   25140.39666004  .00006534  00000-0  30521-3 0  9993
2 49402  97.3720 185.7897 0017182 145.1819 215.0544 15.20008417194229
HO-113
1 50466U 21131B   25140.55211884  .00000503  00000-0  17083-3 0  9995
2 50466  98.5092 230.0043 0004211 179.2358 180.8838 14.40789386178564
IRIS-A
1 51044U 22002BN  25140.16882973  .00385844  61590-4  96301-3 0  9995
2 51044  97.3180 220.0628 0007924 229.7429 130.3155 15.95722905186649
Foresail-1
1 52766U 22057AL  25140.36335844  .00204554  00000-0  80132-3 0  9997
2 52766  97.6039 290.0052 0004746 268.7969  91.2757 15.86437415166680
SNUGLITE 2
1 52899U 22065F   25140.38503221  .00001207  00000-0  24378-3 0  9991
2 52899  98.1661 282.5590 0007949 167.5276 192.6124 14.63163725153530
UmKA 1 (RS40S)
1 57172U 23091G   25140.59742158  .00004724  00000-0  25495-3 0  9995
2 57172  97.5591 196.0853 0015515  49.2176 311.0399 15.15132747104454
CubeBel-2 (EU11S)
1 57175U 23091K   25140.54640660  .00008517  00000-0  41022-3 0  9996
2 57175  97.5592 197.0619 0013441  58.5565 301.6981 15.18917530104513
VERONIKA
1 58261U 23174F   25140.79802556  .00113324  00000-0  11314-2 0  9999
2 58261  97.4125 225.8658 0005563 146.2448 213.9167 15.65248037 85582
ENSO
1 58470U 23185J   25140.87881507  .00050645  00000-0  78711-3 0  9996
2 58470  97.3739 215.3975 0009020 151.6116 208.5631 15.53746125 81977
EIRSAT-1
1 58472U 23185L   25140.76526481  .00091540  00000-0  97943-3 0  9990
2 58472  97.3705 216.8666 0007410 159.5476 200.6081 15.63545426 82067
SONATE-2
1 59112U 24043Q   25140.61773575  .00016046  00000-0  47196-3 0  9991
2 59112  97.5108 271.4090 0011681 180.0305 180.0939 15.35106397 67279
MO-122
1 60209U 24125G   25140.57110203  .00015993  00000-0  46433-3 0  9992
2 60209  97.2822 352.4221 0018480 204.2916 155.7459 15.35405919 48889
GRBBeta
1 60237U 24128C   25140.43827937  .00003700  00000-0  28592-3 0  9999
2 60237  61.9901 149.7748 0050414  52.8085 307.7592 15.02437734 47176
Curium One
1 60242U 24128H   25140.37411446  .00005976  00000-0  42462-3 0  9991
2 60242  61.9801 148.5785 0050370  48.5644 311.9758 15.04771749 47195
ROBUSTA-3A
1 60243U 24128J   25140.43707799  .00005342  00000-0  38628-3 0  9994
2 60243  61.9870 149.1197 0048946  46.3031 314.2099 15.04336762 47194
CatSat
1 60246U 24125J   25140.54976380  .00009657  00000-0  32624-3 0  9993
2 60246  97.2614 351.8390 0043622 163.5084 196.7588 15.29928811 46923
HYPERVIEW-1G (RS66S)
1 61772U 24199AP  25140.59899072  .00018446  00000-0  54907-3 0  9990
2 61772  97.3566   9.5079 0011826 262.1500  97.8401 15.34693895 73894
AO-123
1 61781U 24199AY  25140.67485697  .00006956  00000-0  25588-3 0  9999
2 61781  97.3578   8.6735 0014042 268.2282  91.7349 15.28100553 73849
ZIMSAT 2
1 61783U 24199BA  25140.71441910  .00032818  00000-0  83981-3 0  9993
2 61783  97.3546  10.0946 0011769 257.6806 102.3123 15.39281522 77092
HADES-R (SO-124)
1 62690U 25009CK  25140.18373309  .00028362  00000-0  10460-2 0  9999
2 62690  97.4087 221.0914 0004741 156.4222 203.7235 15.27742839 19030
HYDRA-T
1 62692U 25009CM  25140.17233182  .00029353  00000-0  10752-2 0  9999
2 62692  97.4089 221.1055 0004483 152.9716 207.1758 15.27961541 19034
JINJUSat 1B
1 63210U 25052A   25140.52239943  .00010986  00000-0  50984-3 0  9998
2 63210  97.4438  34.9037 0005727  50.9473 309.2271 15.20192396 10209
NUSHSAT 1
1 63211U 25052B   25140.25669927  .00011019  00000-0  50883-3 0  9994
2 63211  97.4427  34.6392 0005916  55.7420 304.4375 15.20361090 10160
TEVEL2-4
1 63213U 25052D   25140.46395834  .00010411  00000-0  48482-3 0  9999
2 63213  97.4343  34.7514 0005370  69.7737 290.4075 15.20089178 10194
TEVEL2-5
1 63214U 25052E   25140.46432608  .00010427  00000-0  48573-3 0  9999
2 63214  97.4345  34.7513 0005373  69.6145 290.5666 15.20074292 10199
TEVEL2-6
1 63215U 25052F   25140.20261148  .00010008  00000-0  46696-3 0  9990
2 63215  97.4345  34.4906 0005458  70.7275 289.4550 15.20029790 10152
TEVEL2-1
1 63217U 25052H   25140.21084324  .00009442  00000-0  44339-3 0  9994
2 63217  97.4320  34.4590 0005793  79.3107 280.8780 15.19823166 10154
TEVEL2-2
1 63218U 25052J   25140.60616536  .00010497  00000-0  49242-3 0  9994
2 63218  97.4321  34.8482 0005816  78.9250 281.2638 15.19829139 10210
TEVEL2-3
1 63219U 25052K   25140.60622464  .00010562  00000-0  49550-3 0  9997
2 63219  97.4321  34.8478 0005812  78.8953 281.2935 15.19825469 10213
TEVEL2-8
1 63237U 25052AD  25140.45833986  .00010221  00000-0  49596-3 0  9995
2 63237  97.4383  34.6414 0010291  86.4310 273.8102 15.18632737 10180
TEVEL2-9
1 63238U 25052AE  25140.26226597  .00009840  00000-0  47835-3 0  9998
2 63238  97.4383  34.4462 0010427  87.0663 273.1764 15.18576992 10155
TEVEL2-7
1 63239U 25052AF  25139.67070250  .00009964  00000-0  48496-3 0  9996
2 63239  97.4378  33.8596 0010507  89.2089 271.0349 15.18530856 10061
HYDRA-W
1 63490U 25052BL  25140.63388939  .00025073  00000-0  10899-2 0  9993
2 63490  97.4335  34.9763 0014752  84.1873 276.1045 15.22166432 10229
HADES-ICM
1 63492U 25052BN  25140.18339138  .00020605  00000-0  90703-3 0  9991
2 63492  97.4338  34.5122 0014974  88.8431 271.4520 15.21774186 10154
